When you browse on this site, cookies collect data to enhance your experience and personalize the content and advertising you see.
Visit our Privacy Policy to learn more. By continuing to use the site, you agree to this use of cookies and data.
  • In Hungary
  • List of Countries
  • For 7 days
  • Water Temperature
  • Satellite Maps
  • Weather Map
  • News
  • Weather Widgets
  • user-avatar
    Login

    Hourly Weather Matelandia

    Today, 19 January, Saturday

    Time Temperature Precipitation Wind Pressure Humidity
    00:00 +23°C° 0 mm 1 mps 714 mmHg 95%
    01:00 +23°C° 0 mm 1 mps 714 mmHg 96%
    02:00 +23°C° 0 mm 1 mps 714 mmHg 96%
    03:00 +23°C° 0 mm 1 mps 714 mmHg 97%
    04:00 +23°C° 0 mm 1 mps 714 mmHg 97%
    05:00 +23°C° 0 mm 1 mps 714 mmHg 98%
    06:00 +24°C° 0.1 mm 1 mps 715 mmHg 96%
    07:00 +24°C° 0.1 mm 1 mps 715 mmHg 94%
    08:00 +25°C° 0.1 mm 2 mps 715 mmHg 92%
    09:00 +26°C° 0.2 mm 2 mps 715 mmHg 85%
    10:00 +28°C° 0.2 mm 2 mps 716 mmHg 78%
    11:00 +30°C° 0.2 mm 2 mps 716 mmHg 71%
    12:00 +30°C° 0.1 mm 2 mps 715 mmHg 65%
    13:00 +31°C° 0.1 mm 3 mps 715 mmHg 59%
    14:00 +33°C° 0.1 mm 3 mps 715 mmHg 53%
    15:00 +31°C° 0 mm 3 mps 715 mmHg 56%
    16:00 +31°C° 0 mm 2 mps 714 mmHg 59%
    17:00 +30°C° 0 mm 2 mps 714 mmHg 61%
    18:00 +28°C° 0 mm 2 mps 714 mmHg 66%
    19:00 +26°C° 0 mm 2 mps 714 mmHg 71%
    20:00 +25°C° 0 mm 2 mps 714 mmHg 76%
    21:00 +24°C° 0 mm 1 mps 714 mmHg 81%
    22:00 +23°C° 0 mm 1 mps 714 mmHg 86%
    23:00 +22°C° 0 mm 1 mps 714 mmHg 91%

    Tomorrow, 20 January, Sunday

    Time Temperature Precipitation Wind Pressure Humidity
    00:00 +22°C° 0 mm 1 mps 714 mmHg 93%
    01:00 +21°C° 0 mm 1 mps 714 mmHg 95%
    02:00 +19°C° 0 mm 0 mps 713 mmHg 97%
    03:00 +19°C° 0 mm 0 mps 713 mmHg 97%
    04:00 +19°C° 0 mm 0 mps 713 mmHg 98%
    05:00 +19°C° 0 mm 0 mps 713 mmHg 98%
    06:00 +21°C° 0 mm 0 mps 714 mmHg 89%
    07:00 +24°C° 0 mm 0 mps 715 mmHg 80%
    08:00 +26°C° 0 mm 0 mps 715 mmHg 71%
    09:00 +29°C° 0.1 mm 1 mps 715 mmHg 66%
    10:00 +30°C° 0.1 mm 2 mps 715 mmHg 61%
    11:00 +31°C° 0.1 mm 2 mps 715 mmHg 56%
    12:00 +32°C° 0.2 mm 2 mps 714 mmHg 54%
    13:00 +34°C° 0.2 mm 2 mps 714 mmHg 52%
    14:00 +34°C° 0.2 mm 2 mps 714 mmHg 51%
    15:00 +34°C° 0.1 mm 2 mps 713 mmHg 52%
    16:00 +32°C° 0.1 mm 2 mps 713 mmHg 53%
    17:00 +32°C° 0.1 mm 2 mps 713 mmHg 55%
    18:00 +30°C° 0 mm 1 mps 713 mmHg 60%
    19:00 +28°C° 0 mm 1 mps 713 mmHg 65%
    20:00 +26°C° 0 mm 1 mps 713 mmHg 71%
    21:00 +26°C° 0 mm 1 mps 713 mmHg 72%
    22:00 +25°C° 0 mm 1 mps 714 mmHg 74%
    23:00 +25°C° 0 mm 1 mps 714 mmHg 76%

    Day after tomorrow, 21 January, Monday

    Time Temperature Precipitation Wind Pressure Humidity
    00:00 +25°C° 0 mm 1 mps 713 mmHg 80%
    01:00 +24°C° 0 mm 1 mps 713 mmHg 83%
    02:00 +24°C° 0 mm 1 mps 713 mmHg 86%
    03:00 +24°C° 0 mm 1 mps 713 mmHg 88%
    04:00 +23°C° 0 mm 1 mps 713 mmHg 91%
    05:00 +23°C° 0 mm 1 mps 713 mmHg 93%
    06:00 +25°C° 0 mm 1 mps 714 mmHg 85%
    07:00 +27°C° 0 mm 1 mps 715 mmHg 77%
    08:00 +29°C° 0 mm 1 mps 716 mmHg 69%
    09:00 +31°C° 0.4 mm 1 mps 716 mmHg 64%
    10:00 +32°C° 0.4 mm 1 mps 716 mmHg 59%
    11:00 +34°C° 0.4 mm 1 mps 716 mmHg 54%
    12:00 +35°C° 0.3 mm 2 mps 715 mmHg 52%
    13:00 +35°C° 0.3 mm 2 mps 715 mmHg 51%
    14:00 +35°C° 0.3 mm 2 mps 714 mmHg 50%
    15:00 +34°C° 0.6 mm 2 mps 714 mmHg 56%
    16:00 +32°C° 0.6 mm 2 mps 714 mmHg 62%
    17:00 +30°C° 0.6 mm 2 mps 713 mmHg 69%
    18:00 +29°C° 0 mm 2 mps 714 mmHg 72%
    19:00 +28°C° 0 mm 2 mps 714 mmHg 75%
    20:00 +27°C° 0 mm 2 mps 714 mmHg 78%
    21:00 +26°C° 0 mm 2 mps 714 mmHg 78%
    22:00 +26°C° 0 mm 2 mps 715 mmHg 79%
    23:00 +26°C° 0 mm 2 mps 715 mmHg 79%

    22 January, Tuesday

    Time Temperature Precipitation Wind Pressure Humidity
    00:00 +25°C° 0 mm 1 mps 714 mmHg 80%
    01:00 +25°C° 0 mm 1 mps 714 mmHg 81%
    02:00 +25°C° 0 mm 1 mps 714 mmHg 82%
    03:00 +24°C° 0 mm 1 mps 714 mmHg 83%
    04:00 +24°C° 0 mm 1 mps 714 mmHg 85%
    05:00 +24°C° 0 mm 1 mps 714 mmHg 86%
    06:00 +26°C° 0.8 mm 1 mps 715 mmHg 86%
    07:00 +27°C° 0.8 mm 1 mps 716 mmHg 86%
    08:00 +28°C° 0.8 mm 1 mps 716 mmHg 85%
    09:00 +29°C° 2 mm 1 mps 716 mmHg 82%
    10:00 +30°C° 2 mm 1 mps 716 mmHg 79%
    11:00 +31°C° 2 mm 1 mps 716 mmHg 75%
    12:00 +33°C° 0.2 mm 1 mps 715 mmHg 66%
    13:00 +35°C° 0.2 mm 2 mps 715 mmHg 56%
    14:00 +37°C° 0.2 mm 2 mps 714 mmHg 47%
    15:00 +35°C° 0.5 mm 2 mps 714 mmHg 54%
    16:00 +34°C° 0.5 mm 2 mps 714 mmHg 61%
    17:00 +32°C° 0.5 mm 2 mps 713 mmHg 68%
    18:00 +30°C° 0 mm 2 mps 714 mmHg 71%
    19:00 +29°C° 0 mm 2 mps 714 mmHg 75%
    20:00 +27°C° 0 mm 2 mps 714 mmHg 78%
    21:00 +27°C° 0 mm 2 mps 714 mmHg 78%
    22:00 +27°C° 0 mm 2 mps 714 mmHg 77%
    23:00 +27°C° 0 mm 2 mps 715 mmHg 76%

    23 January, Wednesday

    Time Temperature Precipitation Wind Pressure Humidity
    00:00 +26°C° 0 mm 2 mps 714 mmHg 78%
    01:00 +26°C° 0 mm 1 mps 714 mmHg 80%
    02:00 +26°C° 0 mm 1 mps 714 mmHg 82%
    03:00 +25°C° 0 mm 1 mps 714 mmHg 84%
    04:00 +25°C° 0 mm 1 mps 714 mmHg 85%
    05:00 +25°C° 0 mm 1 mps 715 mmHg 86%
    06:00 +27°C° 0.8 mm 1 mps 715 mmHg 83%
    07:00 +28°C° 0.8 mm 1 mps 716 mmHg 80%
    08:00 +30°C° 0.8 mm 1 mps 716 mmHg 76%
    09:00 +32°C° 2 mm 1 mps 716 mmHg 71%
    10:00 +33°C° 2 mm 1 mps 716 mmHg 66%
    11:00 +35°C° 2 mm 2 mps 716 mmHg 61%
    12:00 +35°C° 1.2 mm 1 mps 716 mmHg 58%
    13:00 +35°C° 1.2 mm 1 mps 716 mmHg 56%
    14:00 +35°C° 1.2 mm 1 mps 715 mmHg 53%
    15:00 +34°C° 0.4 mm 1 mps 715 mmHg 60%
    16:00 +32°C° 0.4 mm 1 mps 714 mmHg 67%
    17:00 +31°C° 0.4 mm 1 mps 714 mmHg 74%
    18:00 +29°C° 7.1 mm 2 mps 714 mmHg 80%
    19:00 +28°C° 7.1 mm 3 mps 714 mmHg 86%
    20:00 +26°C° 7.1 mm 3 mps 714 mmHg 92%
    21:00 +25°C° 2.5 mm 3 mps 714 mmHg 92%
    22:00 +25°C° 2.5 mm 2 mps 714 mmHg 93%
    23:00 +24°C° 2.5 mm 1 mps 715 mmHg 94%

    24 January, Thursday

    Time Temperature Precipitation Wind Pressure Humidity
    00:00 +24°C° 0.3 mm 1 mps 714 mmHg 93%
    01:00 +24°C° 0.3 mm 1 mps 714 mmHg 93%
    02:00 +23°C° 0.3 mm 1 mps 713 mmHg 92%
    03:00 +23°C° 0 mm 1 mps 713 mmHg 92%
    04:00 +23°C° 0 mm 1 mps 714 mmHg 92%
    05:00 +23°C° 0 mm 1 mps 714 mmHg 92%
    06:00 +25°C° 0 mm 1 mps 714 mmHg 84%
    07:00 +27°C° 0 mm 1 mps 715 mmHg 77%
    08:00 +30°C° 0 mm 1 mps 716 mmHg 69%
    09:00 +32°C° 0 mm 1 mps 716 mmHg 61%
    10:00 +34°C° 0 mm 1 mps 716 mmHg 53%
    11:00 +36°C° 0 mm 1 mps 716 mmHg 45%
    12:00 +37°C° 0.1 mm 1 mps 715 mmHg 43%
    13:00 +37°C° 0.1 mm 1 mps 714 mmHg 42%
    14:00 +39°C° 0.1 mm 1 mps 713 mmHg 40%
    15:00 +37°C° 0.1 mm 1 mps 713 mmHg 45%
    16:00 +35°C° 0.1 mm 1 mps 712 mmHg 50%
    17:00 +34°C° 0.1 mm 1 mps 712 mmHg 55%
    18:00 +32°C° 0 mm 1 mps 712 mmHg 61%
    19:00 +30°C° 0 mm 1 mps 712 mmHg 67%
    20:00 +28°C° 0 mm 1 mps 713 mmHg 73%
    21:00 +28°C° 0 mm 1 mps 713 mmHg 73%
    22:00 +28°C° 0 mm 2 mps 713 mmHg 74%
    23:00 +27°C° 0 mm 2 mps 713 mmHg 74%
    Show more